Location: Basse Occidentale du Courleau
(48.3833°N, 4.8333°W)
Time: 04:23:00
(UTC+00:00)

Helios 1A - Pass Details

Date: 05 July 2020
Orbit: 587 x 600 km, 98.2° (Epoch: 07 August)

Event Time Altitude Azimuth Distance (km) Brightness Sun altitude
Exits shadow 23:24:57 21° 111° (ESE) 1,348 4.5 -17.7°
Maximum altitude 23:26:53 31° 66° (ENE) 1,053 4.3 -17.8°
Drops below altitude 10° 23:30:33 10° 5° (N) 1,926 6.7 -17.9°
Sets 23:32:53 0° 355° (N) 2,833 8.1 -18.0°
